Weather History for KSTJ - October, 2012

Change the Weather History Date:

Tuesday, October 30, 2012

  Actual Average Record
Temperature  
Mean Temperature 45 °F 49 °F  
Max Temperature 56 °F 61 °F 88 °F (1950)
Min Temperature 33 °F 38 °F 11 °F (1925)
Degree Days  
Heating Degree Days 20 16  
Month to date heating degree days 371 322  
Since 1 July heating degree days 481 402  
Cooling Degree Days 0 0  
Month to date cooling degree days 29 18  
Year to date cooling degree days 1560 1217  
Moisture  
Dew Point 27 °F    
Average Humidity 54    
Maximum Humidity 75    
Minimum Humidity 32    
Precipitation  
Precipitation 0.00 in 0.08 in 2.52 in (2013)
Month to date precipitation 1.65 2.74  
Year to date precipitation 20.52 32.46  
Sea Level Pressure  
Sea Level Pressure 30.08 in    
Wind  
Wind Speed 4 mph (East)    
Max Wind Speed 14 mph    
Max Gust Speed 18 mph    
Visibility 10 miles    
Events      
T = Trace of Precipitation, MM = Missing Value Source: NWS Daily Summary

Daily Weather History Graph

Daily Weather History Graph

Search for Another Location

Airport or City:

Trip Planner

Search our weather history database for the weather conditions in past years. The results will help you decide how hot, cold, wet, or windy it might be!

Date:

Astronomy

Oct. 30, 2012 Rise Set
Actual Time 7:46 AM CDT 6:19 PM CDT
Civil Twilight 7:18 AM CDT 6:47 PM CDT
Nautical Twilight 6:46 AM CDT 7:19 PM CDT
Astronomical Twilight 6:15 AM CDT 7:50 PM CDT
Moon 6:49 PM CDT (10/30) 8:33 AM CDT (10/30)
Length of Visible Light 11h 28m
Length of Day
10h 32m
Full, 99% of the Moon is Illuminated
Oct 30
Full
Nov 6
Last Quarter
Nov 13
New
Nov 20
First Quarter
Nov 28
Full

Hourly Weather History & Observations

Time (CDT) Temp. Windchill Dew Point Humidity Pressure Visibility Wind Dir Wind Speed Gust Speed Precip Events Conditions
12:53 AM 39.9 °F - 28.9 °F 65% 30.15 in 10.0 mi Calm Calm - N/A   Clear
1:53 AM 39.0 °F - 28.0 °F 65% 30.14 in 10.0 mi Calm Calm - N/A   Clear
2:53 AM 39.0 °F 36.8 °F 28.0 °F 65% 30.13 in 10.0 mi East 3.5 mph - N/A   Clear
3:53 AM 37.0 °F 32.4 °F 28.0 °F 70% 30.12 in 10.0 mi ESE 5.8 mph - N/A   Clear
4:53 AM 35.1 °F - 27.0 °F 72% 30.10 in 10.0 mi Calm Calm - N/A   Clear
5:53 AM 35.1 °F 32.2 °F 27.0 °F 72% 30.11 in 10.0 mi East 3.5 mph - N/A   Clear
6:53 AM 36.0 °F 32.1 °F 28.0 °F 73% 30.09 in 10.0 mi East 4.6 mph - N/A   Scattered Clouds
7:53 AM 37.0 °F - 27.0 °F 67% 30.10 in 10.0 mi Calm Calm - N/A   Partly Cloudy
8:53 AM 39.0 °F 34.8 °F 28.9 °F 67% 30.09 in 10.0 mi ESE 5.8 mph - N/A   Partly Cloudy
9:53 AM 42.1 °F 38.4 °F 28.9 °F 60% 30.09 in 10.0 mi ESE 5.8 mph - N/A   Mostly Cloudy
10:53 AM 46.0 °F 41.9 °F 27.0 °F 47% 30.09 in 10.0 mi ESE 8.1 mph - N/A   Mostly Cloudy
11:53 AM 51.1 °F - 26.1 °F 38% 30.09 in 10.0 mi ESE 9.2 mph - N/A   Partly Cloudy
12:53 PM 53.1 °F - 25.0 °F 34% 30.06 in 10.0 mi ESE 11.5 mph - N/A   Mostly Cloudy
1:53 PM 52.0 °F - 23.0 °F 32% 30.06 in 10.0 mi ENE 9.2 mph - N/A   Mostly Cloudy
2:53 PM 53.1 °F - 24.1 °F 32% 30.04 in 10.0 mi ESE 5.8 mph - N/A   Mostly Cloudy
3:53 PM 55.0 °F - 26.1 °F 33% 30.02 in 10.0 mi East 5.8 mph - N/A   Clear
4:53 PM 54.0 °F - 24.1 °F 31% 30.02 in 10.0 mi East 5.8 mph - N/A   Mostly Cloudy
5:53 PM 53.1 °F - 25.0 °F 34% 30.02 in 10.0 mi Calm Calm - N/A   Mostly Cloudy
7:53 PM 39.0 °F 34.8 °F 26.1 °F 60% 30.04 in 10.0 mi NNE 5.8 mph - N/A   Scattered Clouds
8:53 PM 44.1 °F - 28.9 °F 55% 30.04 in 10.0 mi Calm Calm - N/A   Overcast
9:53 PM 46.0 °F 42.5 °F 26.1 °F 46% 30.05 in 10.0 mi North 6.9 mph - N/A   Overcast
10:53 PM 41.0 °F 39.0 °F 27.0 °F 57% 30.05 in 10.0 mi NNW 3.5 mph - N/A   Overcast
11:53 PM 39.9 °F - 26.1 °F 58% 30.05 in 10.0 mi Calm Calm - N/A   Partly Cloudy